Regional Weather Roundup
Issued by NWS

Home | Current Version | Previous Version | Graphics & Text | Print | Product List | Glossary On
Versions: 1 2 3 4 5 6 7 8 9 10 11 12 13 14 15 16 17 18 19 20 21 22 23 24 25 26 27 28 29 30 31 32 33 34 35 36 37 38 39 40 41 42 43 44 45 46 47 48 49 50
482
ASUS43 KDTX 060710
RWRMI
MICHIGAN HOURLY REGIONAL WEATHER ROUNDUP
NATIONAL WEATHER SERVICE DETROIT/PONTIAC MI
200 AM EST SAT FEB 06 2016

NOTE: "FAIR" INDICATES FEW OR NO CLOUDS BELOW 12,000 FEET WITH NO
SIGNIFICANT WEATHER AND/OR OBSTRUCTION TO VISIBILITY.

MIZ047>049-052>055-059>063-066>070-074>076-081>083-060800-
SOUTHEAST LOWER MICHIGAN

CITY           SKY/WX    TMP DP  RH WIND       PRES   REMARKS
ADRIAN         CLOUDY    33  22  63 NW5       30.28F WCI  29
ALMA           MOCLDY    26  20  80 SW5       30.26S WCI  20
ANN ARBOR      CLEAR     25  20  81 W8        30.26F WCI  16
BAD AXE        CLOUDY    28  26  91 W5        30.21F WCI  23
CARO           CLOUDY    27  23  84 W7        30.23S WCI  20
DETROIT CITY   CLOUDY    31  21  66 NW9       30.25S WCI  23
DETROIT        PTCLDY    29  22  75 W10       30.27S WCI  20
FLINT          CLOUDY    29  19  66 W8        30.25F WCI  21
GROSSE ILE     CLOUDY    30  27  86 W10       30.25F WCI  21
HILLSDALE      CLEAR     23  21  91 CALM      30.25F
HOWELL         CLOUDY    26  21  82 W6        30.25S WCI  19

CITY           SKY/WX    TMP DP  RH WIND       PRES   REMARKS
JACKSON        CLEAR     23  18  81 SW5       30.26S WCI  17
LAMBERTVILLE   CLOUDY    28  25  88 W3        30.28S
LANSING        PTCLDY    24  17  74 W5        30.27S WCI  18
LAPEER         CLOUDY    28  23  80 W7        30.24R WCI  21
MASON          MOCLDY    24  19  82 CALM      30.26F
MONROE         CLOUDY    30  24  78 W9        30.26F WCI  22
MT. CLEMENS    CLOUDY    32  26  80 NW5       30.23S WCI  27
PONTIAC        MOCLDY    27  21  78 W12       30.23S WCI  17
PORT HOPE        N/A     28  23  81 W5        30.20S WCI  23
PORT HURON     CLOUDY    30  28  93 W5        30.24S WCI  25
TRI CITIES     CLOUDY    26  19  74 W7        30.25S WCI  18
MIDLAND        CLOUDY    26  17  69 W5        30.23F WCI  21
TROY           PTCLDY    31  23  74 W14       30.27R WCI  20
SAGINAW HB     CLOUDY    28  23  80 W9        30.25S WCI  20
$$
MIZ043>046-050>051-056>058-064>065-071>073-077>080-060800-
SOUTHWEST LOWER MICHIGAN

CITY           SKY/WX    TMP DP  RH WIND       PRES   REMARKS
BATTLE CREEK   CLEAR     23  19  85 S5        30.26F WCI  17
BENTON HARBOR  MOCLDY    26  22  84 SW7       30.29F WCI  18
BIG RAPIDS     CLOUDY    22  18  83 CALM      30.21F
COLDWATER      PTCLDY    23  20  91 SW5       30.28S WCI  16
FREMONT        CLOUDY    23  18  78 CALM      30.24F
HOLLAND        PTCLDY    21  18  88 CALM      30.27F
GRAND RAPIDS   CLEAR     20  17  88 S3        30.26F
IONIA          FAIR      21  17  83 SW3       30.25F
KALAMAZOO      CLEAR     23  19  85 SW8       30.27F WCI  14
LUDINGTON      CLOUDY    29  21  71 SW10      30.22F WCI  20
MARSHALL       MOCLDY    22  19  89 CALM      30.26F
MOUNT PLEASANT CLOUDY    26  17  68 SW6       30.23F WCI  19
MUSKEGON       CLOUDY    24  18  77 SE6       30.26F WCI  17
SOUTH HAVEN    CLEAR     26  23  89 SW6       30.28S WCI  19
$$
MIZ016>042-060800-
NORTHERN LOWER MICHIGAN

CITY           SKY/WX    TMP DP  RH WIND       PRES   REMARKS
ALPENA         CLOUDY    21  16  81 S5        30.18F WCI  15
BEAVER ISLAND  CLOUDY    30  21  68 W18G24    30.13F WCI  18
BELLAIRE       CLOUDY    24  18  77 S5        30.19F WCI  18
CADILLAC       CLOUDY    19  16  85 SW5       30.16F WCI  13
CHARLEVOIX     CLOUDY    26  20  77 S6        30.19F WCI  20
FRANKFORT      CLOUDY    31  22  67 SW8       30.19F WCI  24
GAYLORD        MOCLDY    19  14  81 SW10      30.13F WCI   7
GRAYLING       CLOUDY    19  15  84 CALM      30.17F
HARBOR SPRINGS PTCLDY    23  18  80 S3        30.16F
HOUGHTON LAKE  CLOUDY    20  15  81 SW5       30.18F WCI  13
MANISTEE       CLOUDY    23  16  74 S3        30.21F
OSCODA         CLOUDY    22  20  92 SW5       30.20F WCI  16
PELLSTON       CLOUDY    24  17  74 SW8       30.15F WCI  15
ROGERS CITY    CLOUDY    22  15  75 SW7       30.16F WCI  13
TRAVERSE CITY  CLOUDY    25  17  72 SW6       30.18F WCI  18
$$
MIZ007>008-015-060800-
EASTERN UPPER MICHIGAN

CITY           SKY/WX    TMP DP  RH WIND       PRES   REMARKS
KINROSS        CLOUDY    21  19  93 SW5       30.10F WCI  15
MACKINAC ISLAN CLOUDY    24  20  83 SW9G16    30.11F WCI  15
NEWBERRY       CLOUDY    24  17  76 SW13      30.07F WCI  12
S. S. MARIE    LGT SNOW  22  17  81 CALM      30.09F
MUNISING         N/A     25  14  63 SW7       30.08F WCI  17
$$
MIZ004>006-011>014-085-060800-
CENTRAL UPPER MICHIGAN

CITY           SKY/WX    TMP DP  RH WIND       PRES   REMARKS
MANISTIQUE     CLOUDY    26  19  75 SW9       30.11F WCI  17
ESCANABA       CLOUDY    25  16  68 SW8       30.12F WCI  16
MENOMINEE      CLOUDY    23  16  74 SW8       30.15F WCI  14
SAWYER-GWINN   CLOUDY    22  15  75 SW10G16   30.04S WCI  11
$$
MIZ001>003-009>011-084-060800-
WESTERN UPPER MICHIGAN

CITY           SKY/WX    TMP DP  RH WIND       PRES   REMARKS
IRON MOUNTAIN  CLOUDY    25  14  63 SW9       30.07F WCI  15
HOUGHTON       CLOUDY    25  16  68 W16G25    29.99F WCI  12
COPPER HARBOR    N/A     30  22  72 NW10G24   30.00S WCI  21
IRONWOOD       CLOUDY    21  18  86 SW12      30.04F WCI   9
$$

ABBREVIATIONS USED IN REMARKS
   TC - TEMPERATURE IN CELSIUS
  WCI - WIND CHILL INDEX
   HX - HEAT INDEX
  VSB - VISIBILITY





USA.gov is the U.S. government's official web portal to all federal, state and local government web resources and services.